Hourly Data Report for October 28, 2013

All times are specified in Local Standard Time (LST). Add 1 hour to adjust for Daylight Saving Time where and when it is observed.

POND INLET A
NUNAVUT

72°41'22.000" N
77°58'08.000" W
61.60 m
2403206
71095
YIO

Download Data

Hourly Data (October 2013)
Hourly Data Report for October 28, 2013
Temp Definition
°C
Dew Point Temp Definition
°C
Rel Hum Definition
%
Wind Dir Definition
10's deg

Wind Spd Definition
km/h
Visibility Definition
km
Stn Press Definition
kPa
Hmdx Definition


Wind Chill Definition


Weather Definition


TIME
00:00 Legend Double Dagger -11.9 -16.7 68 16 9 16.1 99.43   -17 LegendNANA
01:00 Legend Double Dagger -12.4 -16.1 74 14 8 16.1 99.48   -17 LegendNANA
02:00 Legend Double Dagger -12.0 -16.7 68 14 15 16.1 99.53   -19 LegendNANA
03:00 Legend Double Dagger -12.5 -16.9 70 13 13 16.1 99.57   -19 LegendNANA
04:00 Legend Double Dagger -12.5 -16.9 70 15 17 16.1 99.62   -20 LegendNANA
05:00 Legend Double Dagger -12.8 -17.0 71 14 15 16.1 99.64   -20 LegendNANA
06:00 Legend Double Dagger -12.7 -17.3 69 15 9 16.1 99.69   -18 LegendNANA
07:00 Legend Double Dagger -13.9 -18.1 71 15 13 16.1 99.72   -21 LegendNANA
08:00 Legend Double Dagger -15.1 -19.6 69 14 4 16.1 99.76   -18 LegendNANA
09:00 Legend Double Dagger -16.2 -19.4 77 15 9 16.1 99.78   -22 LegendNANA
10:00 Legend Double Dagger -16.9 -19.9 78 14 22 16.1 99.80   -27 LegendNANA
11:00 Legend Double Dagger -15.2 -19.8 69 16 18 16.1 99.85   -24 LegendNANA
12:00 Legend Double Dagger -15.3 -19.3 72 14 21 16.1 99.87   -25 LegendNANA
13:00 Legend Double Dagger -15.6 -19.0 76 15 17 16.1 99.90   -24 LegendNANA
14:00 Legend Double Dagger -16.6 -19.9 76 14 21 16.1 99.93   -26 LegendNANA
15:00 Legend Double Dagger -15.5 -18.5 78 14 13 16.1 99.95   -23 LegendNANA
16:00 Legend Double Dagger -15.4 -18.3 79 14 5 16.1 99.98   -19 LegendNANA
17:00 Legend Double Dagger -15.8 -18.4 81 12 5 16.1 100.00   -20 LegendNANA
18:00 Legend Double Dagger -16.0 -19.2 77 14 13 16.1 100.02   -24 LegendNANA
19:00 Legend Double Dagger -14.6 -19.2 69 15 13 16.1 100.03   -22 LegendNANA
20:00 Legend Double Dagger -15.0 -19.2 71 17 11 16.1 100.03   -22 LegendNANA
21:00 Legend Double Dagger -14.7 -18.3 75 17 9 16.1 100.04   -20 LegendNANA
22:00 Legend Double Dagger -13.7 -17.4 74 16 9 16.1 100.03   -19 LegendNANA
23:00 Legend Double Dagger -14.4 -17.9 75 15 15 16.1 100.04   -22 LegendNANA

Notes on Data Quality.

Legend

  • E = Estimated
  • M = Missing
  • NA = Not Available
  • ‡ = Partner data that is not subject to review by the National Climate Archives
Date modified: